Temperature
12 12 12 12 12 12 12 12 12 12 12 12 12 13 12 12 12 12 12 12 12 12 12 12 12 12 11 11 11 11 11 10 10 10 10 9 9 9 9 9 8 8 8
11 11 12 12 12 12 12 12 12 12 12 12 12 12 12 12 12 12 12 12 12 12 12 12 12 12 11 11 11 11 11 10 10 10 9 9 9 9 9 8 8 8 8
11 11 11 11 11 11 11 11 11 11 11 11 11 11 12 12 12 12 12 12 12 12 12 12 12 12 11 11 11 11 10 10 10 10 9 9 9 8 8 8 8 8 8
10 10 11 11 11 11 11 11 11 11 11 11 11 11 11 11 11 11 12 12 12 12 12 12 12 11 11 11 11 10 10 10 10 10 9 9 9 8 8 8 8 7 7
10 10 10 10 10 10 10 10 10 10 10 10 10 10 11 11 11 11 11 11 11 11 11 11 11 11 11 11 11 11 10 10 10 10 9 9 8 8 8 7 7 7 7
10 10 10 10 10 10 10 10 10 10 10 10 10 10 10 10 11 11 11 11 11 11 11 11 11 11 11 11 11 11 10 10 10 10 9 9 8 8 7 7 7 7 7
9 9 10 10 9 9 9 9 9 9 9 9 9 9 9 10 10 10 10 11 11 11 11 11 11 11 11 11 11 11 10 10 9 9 9 9 8 8 7 7 7 7 7
9 9 9 9 9 9 9 9 9 9 9 9 9 8 8 9 9 10 10 10 10 11 10 10 10 10 10 11 11 10 10 10 9 9 9 8 8 8 7 7 7 7 6
9 9 9 9 9 9 8 8 8 8 8 8 9 9 8 8 9 9 10 10 10 10 10 10 10 10 10 10 10 10 10 10 9 9 9 8 8 8 7 7 7 6 6
8 8 8 9 8 8 8 8 8 8 8 8 8 9 9 9 8 8 9 9 9 10 10 10 10 10 10 10 10 10 10 10 9 9 9 8 8 7 7 7 7 6 6
8 8 8 8 8 8 8 8 8 8 8 8 8 8 8 8 9 8 8 9 9 9 9 10 10 10 10 10 10 9 9 9 9 9 8 8 8 7 7 7 6 6 6
7 8 7 7 7 7 7 7 7 7 8 8 8 8 8 8 8 8 8 8 8 9 9 9 9 9 9 9 9 9 9 9 9 8 8 8 8 7 7 7 6 6 6
7 7 7 7 7 7 7 7 7 7 7 7 7 7 8 8 8 8 8 8 8 8 8 9 9 9 9 9 9 9 9 9 9 8 8 8 7 7 7 7 6 6 5
6 6 7 7 7 7 7 7 7 7 7 7 7 7 7 7 8 8 8 8 7 7 8 8 9 9 9 9 9 9 8 8 8 8 8 8 7 7 7 7 6 6 5
6 6 6 6 6 6 6 6 6 6 7 7 7 7 7 7 7 7 7 7 7 7 7 8 8 8 9 9 9 8 8 8 8 7 7 7 7 7 6 6 6 5 5
5 5 6 6 6 6 6 6 6 6 6 6 7 7 7 7 7 7 7 7 7 7 7 7 8 8 8 8 8 8 8 8 7 7 7 7 7 6 6 6 5 5 5
5 5 5 5 5 5 6 6 6 6 6 6 6 6 6 7 7 7 7 7 7 7 7 7 7 8 8 8 8 7 7 7 7 7 7 7 6 6 6 5 5 5 4
5 5 5 5 5 5 5 5 6 6 6 6 6 6 6 6 6 7 7 7 7 7 7 7 7 7 7 7 7 7 7 7 7 7 6 6 6 6 5 5 5 4 4
5 4 4 4 5 5 5 5 5 5 5 5 5 6 6 6 6 6 6 7 6 6 6 6 7 7 7 7 6 6 6 6 6 6 6 6 6 5 5 5 4 4 4
4 4 4 4 4 5 5 5 5 5 5 5 5 5 5 6 6 6 6 6 6 6 6 6 6 6 6 6 6 6 6 6 6 6 5 5 5 5 4 4 4 4 3
4 4 4 4 4 4 4 4 4 4 4 5 5 5 5 5 5 6 6 6 6 6 6 6 6 6 6 6 6 5 5 5 5 5 5 5 5 4 4 4 3 3 3
4 4 4 4 4 4 4 4 4 4 4 4 4 4 5 5 5 5 5 5 5 5 5 5 5 5 6 5 5 5 5 5 5 4 4 4 4 4 4 3 3 3 3
3 3 3 3 3 4 4 4 4 4 4 4 4 4 4 4 5 5 5 5 5 5 5 5 5 5 5 5 5 5 5 5 4 4 4 4 4 4 3 3 3 2 2
3 3 3 3 3 3 3 3 3 4 4 4 4 4 4 4 4 4 4 4 4 4 4 4 5 5 5 5 5 5 4 4 4 3 4 3 3 3 3 3 2 2 2
2 2 2 2 2 3 3 3 3 3 3 3 3 3 3 3 3 4 4 4 4 4 4 4 4 4 4 4 4 4 4 3 3 3 3 3 3 3 2 2 2 1 1
2 2 2 2 2 2 2 3 3 3 3 3 3 3 3 3 3 3 3 4 4 4 4 4 4 4 4 4 4 4 4 3 3 3 3 3 2 2 2 1 1 1 1
Wind_Speed
3 3 3 4 4 4 4 4 4 4 4 5 6 6 5 6 6 7 8 13 14 14 14 14 14 13 13 13 12 10 9 8 7 6 5 4 3 2 1 3 4 5 6
4 4 3 4 4 4 5 5 4 4 4 4 4 5 5 5 6 7 9 10 13 14 15 15 15 14 14 14 13 12 11 10 9 8 6 5 4 4 3 4 4 5 6
5 5 4 4 4 4 5 4 3 3 2 3 4 4 3 4 5 7 9 9 10 13 15 15 15 15 15 14 14 13 12 11 10 9 8 7 6 5 4 4 5 5 6
6 5 4 4 4 4 4 3 3 2 2 3 3 3 3 3 5 6 8 9 10 10 13 16 15 15 15 15 14 14 13 12 11 10 9 8 7 6 6 6 5 5 6
6 5 5 4 5 4 4 4 3 3 3 3 3 3 3 3 4 4 5 8 9 10 11 14 15 15 16 15 15 15 14 14 12 11 11 10 9 8 7 7 6 6 7
6 5 4 5 5 4 4 4 4 3 3 3 3 2 3 4 4 5 6 6 7 10 11 12 12 13 15 15 15 15 15 15 14 12 11 11 10 9 8 7 7 7 7
6 5 5 5 6 5 5 5 3 4 3 2 1 1 3 4 5 5 5 5 6 9 10 11 11 11 11 15 15 15 14 14 14 13 12 11 10 9 9 8 7 7 8
6 6 6 6 6 5 6 6 4 3 3 3 2 1 1 2 4 5 4 5 6 6 7 10 10 11 10 10 12 15 15 14 14 13 13 12 11 10 9 8 8 8 8
6 6 6 6 6 6 6 6 6 5 5 4 4 3 3 3 2 3 5 5 6 6 6 7 9 10 11 10 11 13 15 15 15 14 13 13 12 11 10 9 8 8 8
5 6 6 6 7 6 7 7 6 5 6 5 5 4 4 3 2 2 3 4 6 7 7 7 8 9 11 10 11 13 15 15 15 14 13 13 12 11 10 9 9 8 8
5 5 5 5 6 6 7 7 7 7 5 6 5 4 4 3 4 3 4 4 4 5 6 6 6 7 9 10 10 12 15 15 16 15 13 13 12 11 10 9 8 8 7
3 4 4 5 6 6 7 7 7 7 6 6 5 5 4 4 4 4 5 5 5 4 5 5 6 6 8 9 11 13 15 16 15 14 13 12 11 11 10 9 8 7 7
3 4 5 5 5 5 6 6 7 7 7 7 7 6 6 6 5 4 4 5 4 3 4 4 5 6 8 9 10 13 14 16 15 14 12 11 10 9 9 9 8 7 7
4 5 5 5 5 5 6 6 6 7 7 7 8 7 5 5 5 5 5 4 4 4 4 5 4 6 7 8 10 12 11 14 14 13 12 11 10 9 8 7 6 5 6
4 5 5 5 5 6 6 6 5 6 6 7 7 7 6 5 5 5 5 5 5 6 6 4 3 5 5 7 9 9 9 12 13 13 12 11 10 9 8 7 6 5 4
4 4 4 4 4 5 6 6 5 6 6 6 5 6 6 5 5 5 5 5 5 5 6 4 3 3 4 5 9 9 9 11 13 12 12 11 10 9 8 7 6 5 4
4 4 4 4 4 5 5 5 5 5 6 6 5 6 7 6 6 5 5 5 5 4 6 4 3 2 4 4 4 6 8 8 9 12 12 11 10 10 8 7 6 5 4
3 3 3 3 4 4 5 5 5 5 5 6 6 6 7 6 7 6 5 6 5 5 5 6 3 2 4 5 5 6 5 6 7 10 11 11 10 10 9 8 6 5 4
3 3 3 3 4 4 4 4 4 4 5 5 5 6 6 6 7 5 5 5 5 5 4 5 4 3 3 3 3 3 4 3 5 7 9 10 10 10 9 8 7 5 4
2 2 2 3 3 3 3 3 4 4 4 4 4 5 5 6 6 5 4 5 4 4 4 4 4 3 3 2 3 3 3 3 3 4 5 6 8 9 9 8 7 6 5
1 1 1 2 2 2 3 3 3 4 3 4 4 5 6 6 6 5 5 5 5 4 4 4 4 3 3 3 4 3 4 2 2 3 3 3 4 4 6 7 7 6 5
1 1 2 2 2 3 3 4 4 3 3 4 4 4 4 4 5 6 7 7 8 7 7 6 5 5 5 4 3 3 3 2 2 3 3 3 3 3 3 4 6 6 5
1 1 2 2 2 2 3 4 4 3 3 3 3 3 4 3 3 3 4 6 7 10 10 7 7 7 6 5 5 4 4 4 3 3 3 2 2 3 3 4 6 5 5
1 2 1 1 1 2 4 4 4 3 2 3 3 4 4 3 3 3 3 3 4 5 7 6 6 6 5 5 6 5 4 2 1 2 2 2 2 1 1 3 6 5 4
2 2 2 1 1 2 3 4 4 2 2 3 4 3 3 3 4 3 3 2 3 2 3 4 5 5 5 6 5 4 4 3 1 1 1 2 2 1 1 2 4 5 4
2 2 2 2 2 2 4 5 4 1 2 3 3 3 4 4 4 4 3 3 3 3 2 2 2 2 2 3 5 5 6 5 2 2 2 2 2 2 1 1 1 3 3
Wind_Direction
208 203 205 190 191 184 179 196 205 200 197 196 200 206 206 196 184 171 173 182 187 194 199 200 198 197 197 192 189 189 190 190 190 192 193 198 202 215 274 304 313 320 325
205 204 209 201 196 182 191 201 208 208 202 195 208 203 201 200 190 173 171 180 188 193 202 206 205 205 203 199 196 193 194 197 199 202 204 210 217 229 255 279 296 307 314
204 208 202 198 196 188 200 209 214 205 205 206 210 211 206 205 199 183 178 180 187 196 203 207 209 210 208 206 203 200 200 202 206 208 210 216 221 231 251 266 285 296 304
205 205 197 198 197 189 190 205 203 202 209 208 210 214 214 211 217 200 186 184 186 193 203 211 212 212 211 210 209 208 206 205 208 211 214 219 223 232 246 259 274 285 296
213 204 196 198 185 188 189 205 202 195 204 217 216 212 213 214 225 218 205 194 189 190 194 206 211 214 214 214 214 213 212 209 210 213 214 220 226 234 243 255 266 278 288
215 204 197 196 182 186 192 196 200 203 200 208 237 237 232 224 223 224 219 203 192 193 196 201 205 213 216 217 218 218 217 213 213 215 217 222 229 236 242 250 261 273 284
212 202 202 195 188 192 196 196 198 195 201 191 208 267 273 241 229 225 219 207 202 198 197 200 201 203 211 216 218 220 220 218 217 217 218 221 227 235 241 247 258 270 281
215 211 198 198 192 191 196 198 192 197 209 187 183 190 253 266 247 233 223 214 209 198 201 203 203 202 202 203 212 216 220 222 221 220 219 222 228 234 239 246 255 267 276
212 210 206 203 196 194 197 200 200 200 203 208 198 195 206 227 262 247 227 221 212 209 207 204 207 206 202 198 201 209 213 219 222 221 221 223 227 232 236 243 254 264 274
217 212 206 205 202 200 198 203 207 199 198 209 219 224 224 217 221 252 246 226 218 216 212 210 210 208 204 198 199 203 208 213 221 223 223 224 228 233 235 242 252 261 272
222 215 209 202 208 208 202 205 207 205 204 211 219 226 233 241 230 229 249 241 238 230 219 211 207 206 205 200 197 201 204 209 218 222 222 224 228 231 235 241 249 258 270
222 214 212 210 211 216 211 206 209 209 210 215 222 224 219 220 226 229 238 233 239 244 234 222 212 208 205 204 202 201 203 206 214 219 220 223 227 228 233 240 247 257 268
228 214 214 210 211 218 216 212 211 212 209 212 222 229 229 228 226 231 231 238 251 257 242 234 219 206 207 202 202 201 205 206 210 212 212 215 220 225 231 238 247 255 267
228 211 204 209 212 217 222 214 215 218 214 214 224 227 235 238 231 229 225 228 250 261 247 240 229 211 205 200 202 198 208 206 209 208 207 206 210 215 223 227 233 248 265
229 212 204 207 213 217 218 214 221 223 218 220 220 224 233 238 235 234 222 214 223 247 252 239 230 220 201 194 196 199 203 206 206 206 204 203 203 207 208 206 221 235 254
220 207 207 207 217 223 220 218 221 223 223 227 224 223 232 236 234 231 222 222 221 227 245 237 234 215 198 202 195 194 200 203 205 203 202 200 199 198 194 195 206 218 240
211 209 209 213 219 221 220 220 224 223 225 228 227 228 233 234 236 233 220 218 222 219 238 254 248 219 203 203 198 194 197 201 206 203 203 200 197 192 190 192 200 213 234
218 213 205 218 228 229 223 218 225 234 236 234 231 230 235 237 241 234 215 214 218 219 223 240 249 228 219 203 201 198 195 199 201 202 202 199 194 190 191 193 200 207 224
226 225 219 227 233 232 229 220 222 236 242 242 238 234 238 240 242 230 214 215 218 223 221 223 239 230 231 201 195 198 187 187 197 199 199 198 193 193 193 194 196 199 214
218 226 231 234 231 234 238 237 235 237 243 247 249 245 241 243 232 222 217 216 215 214 209 212 224 216 219 201 173 191 201 196 200 185 194 196 195 195 195 195 195 196 199
288 234 235 248 243 243 242 245 244 248 244 252 259 259 257 248 234 225 223 216 210 211 207 213 219 211 209 189 202 204 207 197 204 176 178 192 188 191 195 194 194 193 195
308 272 244 247 251 262 269 276 273 266 250 248 256 267 267 262 247 235 231 228 219 214 211 213 220 213 220 209 204 198 190 181 226 188 178 203 175 185 189 187 195 196 196
302 289 267 249 247 246 269 281 286 283 259 254 257 267 274 264 258 240 238 237 232 227 223 217 213 215 213 209 194 200 203 198 223 183 152 196 180 195 188 194 200 199 200
305 300 296 276 272 263 275 286 300 304 293 287 274 262 259 256 245 235 235 238 240 235 225 219 214 214 207 196 195 197 190 164 102 134 129 181 188 191 179 196 197 197 202
313 306 293 282 277 267 276 287 297 302 300 300 288 277 262 255 253 237 221 230 240 240 209 190 187 190 192 189 175 153 152 152 188 196 137 144 161 132 162 197 201 203 201
310 308 305 288 264 251 272 288 299 289 295 297 293 283 272 262 267 239 218 209 216 225 199 183 174 162 172 169 166 174 176 176 173 195 186 151 151 124 137 248 201 201 200
Height
1472 1473 1475 1476 1478 1479 1481 1482 1484 1486 1488 1490 1492 1493 1495 1496 1498 1499 1500 1502 1504 1505 1506 1507 1508 1509 1510 1511 1511 1512 1513 1513 1513 1513 1513 1513 1512 1512 1511 1510 1510 1509 1508
1468 1469 1470 1472 1474 1476 1477 1479 1481 1483 1484 1486 1488 1490 1491 1493 1494 1495 1497 1498 1500 1501 1503 1504 1505 1506 1507 1508 1508 1509 1510 1510 1511 1511 1510 1510 1510 1509 1509 1508 1507 1506 1505
1463 1465 1466 1468 1470 1472 1474 1476 1478 1479 1481 1483 1484 1486 1488 1489 1491 1492 1493 1494 1495 1497 1498 1500 1501 1502 1503 1504 1505 1506 1506 1507 1507 1508 1507 1507 1507 1506 1506 1505 1504 1504 1503
1459 1460 1461 1463 1465 1468 1470 1472 1473 1475 1476 1478 1480 1482 1483 1485 1486 1487 1488 1490 1491 1492 1494 1495 1497 1498 1499 1500 1501 1502 1503 1503 1504 1504 1504 1504 1504 1503 1503 1502 1502 1501 1500
1454 1456 1457 1459 1461 1463 1465 1467 1469 1471 1473 1474 1476 1477 1479 1480 1482 1483 1484 1485 1486 1487 1489 1491 1492 1493 1495 1496 1497 1498 1499 1499 1500 1500 1500 1500 1500 1500 1500 1499 1499 1498 1497
1450 1452 1453 1455 1456 1459 1460 1463 1465 1468 1469 1471 1472 1473 1474 1476 1477 1478 1479 1480 1482 1483 1484 1486 1487 1488 1490 1491 1493 1494 1495 1495 1496 1496 1496 1497 1497 1497 1496 1496 1495 1495 1494
1446 1447 1448 1450 1452 1454 1456 1458 1461 1463 1465 1467 1468 1469 1470 1471 1472 1473 1475 1476 1477 1478 1480 1481 1482 1483 1485 1486 1488 1489 1490 1491 1491 1492 1492 1492 1493 1493 1493 1492 1492 1491 1490
1441 1442 1444 1446 1447 1450 1452 1454 1456 1458 1461 1463 1464 1465 1466 1467 1467 1468 1470 1471 1472 1473 1474 1476 1477 1478 1480 1481 1482 1484 1485 1486 1487 1487 1488 1488 1488 1488 1489 1488 1488 1487 1486
1437 1438 1439 1441 1443 1445 1447 1449 1452 1454 1456 1458 1460 1462 1463 1462 1462 1463 1464 1466 1467 1468 1469 1470 1472 1473 1474 1475 1477 1478 1480 1481 1482 1483 1483 1484 1484 1484 1484 1484 1484 1483 1482
1432 1433 1434 1436 1438 1440 1442 1445 1447 1449 1451 1452 1455 1457 1459 1459 1459 1458 1459 1460 1462 1462 1463 1464 1466 1467 1468 1469 1471 1472 1474 1475 1477 1478 1478 1479 1480 1480 1480 1480 1479 1479 1478
1427 1428 1429 1431 1434 1435 1437 1440 1442 1444 1446 1448 1449 1451 1454 1455 1455 1455 1453 1454 1456 1457 1458 1459 1460 1461 1463 1464 1465 1466 1468 1470 1472 1473 1473 1474 1475 1475 1475 1475 1475 1474 1473
1421 1423 1425 1427 1429 1430 1432 1435 1437 1439 1441 1444 1445 1447 1448 1449 1450 1451 1450 1450 1451 1451 1453 1453 1454 1455 1457 1458 1459 1460 1462 1464 1466 1467 1468 1469 1470 1470 1470 1471 1470 1470 1469
1416 1418 1421 1423 1424 1426 1428 1430 1432 1434 1436 1438 1440 1442 1443 1444 1446 1447 1446 1446 1446 1446 1447 1447 1448 1449 1451 1452 1453 1455 1456 1458 1460 1462 1463 1464 1465 1465 1466 1466 1466 1465 1464
1412 1414 1416 1418 1420 1422 1424 1425 1427 1430 1431 1433 1435 1436 1438 1439 1440 1442 1442 1442 1442 1442 1441 1441 1442 1444 1445 1446 1447 1449 1451 1452 1454 1456 1457 1459 1460 1460 1461 1461 1461 1460 1460
1409 1410 1412 1413 1415 1417 1419 1420 1422 1424 1426 1428 1429 1431 1432 1433 1434 1435 1436 1437 1438 1437 1436 1436 1437 1438 1439 1440 1442 1443 1445 1446 1448 1450 1452 1453 1454 1455 1456 1456 1456 1455 1455
1405 1406 1408 1409 1411 1412 1414 1415 1418 1419 1421 1422 1424 1425 1426 1427 1428 1429 1430 1431 1432 1433 1431 1431 1432 1433 1434 1435 1436 1438 1440 1441 1443 1444 1446 1448 1449 1450 1451 1451 1451 1451 1450
1401 1402 1404 1405 1406 1408 1409 1411 1413 1414 1416 1417 1418 1419 1420 1421 1422 1423 1423 1425 1426 1427 1426 1425 1427 1428 1429 1430 1431 1433 1435 1436 1437 1439 1441 1442 1443 1444 1445 1446 1446 1446 1446
1398 1398 1400 1401 1402 1403 1405 1407 1408 1409 1410 1411 1412 1413 1414 1415 1415 1416 1417 1418 1420 1421 1422 1421 1422 1423 1424 1425 1426 1427 1429 1430 1432 1434 1436 1437 1438 1439 1440 1441 1441 1441 1441
1394 1395 1396 1397 1398 1399 1401 1402 1403 1404 1405 1406 1407 1408 1408 1409 1409 1410 1411 1412 1414 1416 1417 1418 1417 1418 1419 1420 1421 1422 1423 1425 1427 1429 1431 1432 1433 1435 1435 1436 1436 1436 1436
1391 1391 1392 1394 1394 1395 1396 1397 1398 1399 1400 1401 1402 1403 1403 1403 1404 1405 1406 1407 1409 1411 1412 1413 1413 1413 1414 1415 1416 1417 1418 1419 1421 1423 1425 1427 1429 1430 1430 1431 1431 1432 1432
1388 1388 1389 1390 1391 1391 1392 1393 1394 1395 1395 1396 1397 1397 1398 1398 1399 1400 1401 1402 1404 1406 1407 1408 1408 1408 1409 1410 1411 1412 1413 1414 1416 1418 1420 1422 1423 1424 1425 1426 1426 1427 1427
1385 1386 1386 1387 1387 1388 1389 1390 1390 1391 1391 1391 1392 1392 1392 1393 1393 1395 1396 1397 1400 1401 1402 1403 1403 1404 1404 1405 1407 1408 1408 1410 1411 1413 1415 1416 1418 1418 1420 1421 1422 1423 1423
1384 1383 1384 1384 1384 1385 1386 1386 1387 1387 1387 1387 1387 1387 1387 1388 1389 1390 1391 1392 1394 1395 1397 1398 1398 1399 1400 1401 1402 1403 1404 1405 1406 1408 1410 1411 1413 1413 1415 1417 1418 1419 1419
1382 1381 1381 1381 1381 1382 1382 1383 1383 1383 1383 1383 1383 1383 1383 1383 1384 1385 1386 1387 1388 1389 1391 1393 1394 1395 1396 1397 1398 1400 1401 1402 1403 1405 1407 1407 1408 1410 1411 1413 1414 1415 1415
1380 1380 1379 1379 1378 1378 1379 1379 1380 1379 1379 1379 1379 1379 1379 1379 1380 1381 1382 1382 1383 1384 1386 1388 1390 1391 1392 1394 1394 1396 1396 1397 1398 1400 1402 1403 1404 1406 1408 1409 1411 1411 1411
1378 1377 1376 1376 1376 1375 1376 1376 1376 1376 1375 1375 1374 1375 1375 1376 1376 1377 1378 1378 1379 1380 1382 1383 1385 1387 1388 1389 1390 1392 1393 1393 1394 1396 1398 1400 1401 1402 1404 1406 1407 1408 1408